Vertical_Velocity
-2 -5 1 2 1 1 1 2 1 -4 0 5 -1 -1 -7 -4 5 2 -1 1 -0 -1 2 -0 1 0 1 0 -1 -1 -2 -2 -6 -6 -4 1 -0 0 1 1 3 1 -2 -3
2 -0 1 0 0 1 0 1 -2 -4 -0 6 -2 -10 -6 -0 -4 -1 -0 0 -1 5 2 0 2 2 2 -0 -1 -1 -2 -2 -1 -1 -1 -1 -1 -2 -4 -4 -3 -2 3 1
-0 4 -0 1 0 0 -1 1 -0 3 -3 1 4 -3 1 3 1 -0 -1 -1 3 -1 -1 2 1 1 -0 -1 -2 -1 1 -1 -3 -4 -3 -2 -1 -1 2 0 -3 -3 -1 1
1 1 0 0 0 2 1 1 1 1 0 2 2 -7 0 1 0 -0 0 1 0 2 10 6 2 1 0 -2 0 -1 -2 -0 -0 -1 -0 -1 -1 -1 -1 1 1 -0 -1 2
4 0 0 1 2 1 2 1 3 1 0 2 2 3 -3 0 0 0 0 1 2 2 1 1 2 -1 -0 0 -1 1 -1 -2 -2 -1 0 -0 2 2 -1 -2 -0 2 -2 -4
1 -1 1 3 -1 0 0 1 1 1 1 2 1 3 -3 1 1 1 1 1 0 0 0 -0 -0 1 -1 0 -0 1 2 -1 -2 -3 -1 -1 -1 -1 -2 -3 -5 -1 1 -4
1 1 1 0 2 2 0 1 -2 -1 2 3 0 4 -6 0 0 1 -2 1 2 2 2 3 2 1 1 1 2 1 -0 -1 -1 1 -2 -1 -1 -2 -4 -3 -6 -3 -4 -2
1 2 1 0 1 2 1 0 2 1 1 1 1 -2 3 2 -0 -1 1 1 1 0 -0 -1 -2 1 1 1 1 1 -1 1 1 2 1 -1 1 -1 -2 0 -1 -2 -0 -1
1 -0 2 -1 0 3 4 2 2 0 1 5 -2 -5 8 -0 1 2 1 1 -0 0 1 2 2 1 3 2 -2 -2 -2 -2 -2 -1 1 0 2 -1 -3 1 0 -4 -1 -0
1 -1 1 3 1 2 1 3 5 2 2 -1 -2 -1 -6 -0 0 1 2 -1 0 1 0 2 3 -1 -3 -2 -1 -2 -1 -2 -1 0 0 0 1 -1 -2 -2 -2 -3 -2 0
-1 2 4 3 0 -1 3 1 1 3 2 2 1 -4 -1 -1 -1 -2 -2 -1 -1 -2 -1 -2 -2 -2 -1 -1 -2 -1 -1 0 2 0 -2 -2 -1 -2 -3 -4 -1 -3 -1 -1
1 -1 -0 -2 2 0 1 -0 -1 3 -1 -1 2 -17 -0 0 -0 0 -3 -5 -5 -6 -1 1 2 1 -2 2 1 -2 0 0 -2 -1 -1 -2 -3 -3 -2 -1 -2 -3 -3 -2
-4 0 -2 2 4 3 1 0 -0 0 1 -5 8 -11 0 0 0 -2 -1 0 2 9 1 0 -0 -4 -2 2 -0 -1 0 0 -0 -4 -4 -0 0 -2 -2 -3 -2 0 0 -0
0 0 -3 -3 -6 1 1 1 -0 -0 4 -8 -11 -11 -7 -2 -1 -1 -1 -3 -0 3 5 1 -1 2 2 1 -1 -1 -1 -4 -1 1 2 2 2 2 0 -0 1 -1 -1 -1
1 0 6 -5 -1 3 0 0 -1 2 -11 11 -23 2 -8 -2 0 1 -1 0 1 3 3 2 2 2 -0 -0 -3 -2 1 1 2 -0 -3 -4 -2 -1 -1 -2 -2 -1 -2 -2
0 -2 1 -2 -1 2 1 -1 0 -0 -3 2 3 -13 2 -3 -1 -0 -0 0 -2 -2 -3 -1 -0 -1 2 4 4 0 -3 -3 -3 -3 -3 0 -0 1 1 1 -0 -2 -1 -1
-0 1 2 -6 -0 0 4 -10 -2 -1 0 -2 -0 -13 0 -1 -1 -0 1 3 3 4 6 4 -2 -2 -1 -7 -5 -2 -3 -1 -1 -0 2 -0 -2 -1 -0 -1 -2 -1 -2 1
-1 1 1 -1 1 5 -2 -0 -1 -2 -2 0 -0 -1 -1 -1 -2 4 3 -2 -2 1 -5 -3 -4 -2 2 3 2 -0 -0 -0 -0 -0 -0 -1 -2 -3 -0 -2 -1 0 -0 0
1 -1 -0 2 0 -12 -7 1 -2 -3 -5 -1 -1 -1 -1 -1 -1 3 0 1 1 -1 -2 -0 3 3 1 -1 -0 -1 -1 -1 -3 -4 -1 2 -0 -3 -3 -2 -1 2 -1 1
1 1 1 2 3 1 8 2 0 0 -1 1 -0 -0 0 -1 3 2 1 1 -2 2 3 1 1 3 0 2 1 -3 -1 -1 -0 -0 -2 -0 0 -2 -2 0 0 -0 0 -1
1 1 0 -1 -0 -6 3 1 -1 8 8 -2 0 -1 -0 2 6 -0 -11 -5 -2 0 2 -1 -1 -3 -2 -2 -0 -2 -2 -3 -3 -2 1 3 2 -0 1 -1 0 -0 -1 1
-0 -0 -1 1 3 -2 -2 -1 6 8 -8 1 -0 4 3 -5 -7 -6 -3 2 -2 -6 -8 -2 -9 -9 1 2 -0 -3 -2 -1 -1 1 1 -1 -1 -0 -1 -2 -1 -0 -0 -1
-0 -4 1 -2 -3 1 5 2 2 2 4 1 6 -0 -4 -3 -3 2 1 -1 -1 -3 -5 1 -1 -7 9 -1 1 -4 2 -0 0 0 -0 -1 -2 -2 -1 -1 -1 -1 -1 1
-0 0 0 7 -5 2 -1 -3 3 4 2 -1 -5 -9 -1 1 3 -2 2 -1 -5 0 -5 -3 1 1 -6 5 5 3 -1 -1 1 -3 -0 -1 -0 -2 1 2 1 1 -0 2
0 3 -1 -8 -4 -10 -1 2 3 -2 -2 -4 1 -1 -4 4 1 2 -1 0 -1 -3 -1 5 -1 -2 -3 -3 -2 -1 -1 -1 -1 0 -1 -1 0 -0 -2 1 -0 -1 -1 4
2 -0 2 0 3 0 1 -4 -8 -0 3 5 3 -2 9 2 -1 0 2 2 -2 -6 -3 -3 2 -1 -3 -1 -2 -3 0 2 1 0 -1 -2 1 -1 0 -1 -8 4 -0 -1
Height
1528 1528 1535 1542 1544 1542 1542 1538 1531 1522 1531 1528 1512 1504 1498 1501 1502 1503 1504 1506 1510 1514 1519 1521 1525 1527 1529 1530 1531 1532 1532 1530 1530 1529 1527 1524 1522 1520 1517 1515 1512 1509 1506 1504
1529 1536 1547 1548 1548 1544 1539 1536 1527 1522 1530 1530 1509 1498 1489 1491 1494 1495 1497 1499 1503 1508 1512 1517 1520 1523 1526 1527 1528 1528 1528 1527 1526 1525 1523 1521 1519 1516 1515 1513 1510 1506 1502 1498
1530 1545 1549 1548 1544 1541 1533 1534 1532 1536 1529 1526 1521 1483 1483 1491 1493 1494 1494 1495 1499 1502 1507 1512 1516 1519 1522 1524 1525 1525 1524 1524 1523 1521 1520 1518 1515 1512 1509 1506 1505 1505 1501 1497
1542 1548 1547 1545 1543 1545 1536 1540 1541 1538 1534 1518 1524 1498 1475 1486 1490 1492 1493 1494 1496 1500 1506 1510 1513 1516 1519 1521 1522 1522 1521 1520 1519 1517 1515 1513 1512 1510 1508 1505 1501 1497 1497 1493
1541 1545 1544 1541 1544 1547 1535 1543 1541 1540 1539 1540 1521 1522 1472 1487 1486 1489 1493 1495 1498 1501 1504 1507 1511 1514 1517 1519 1519 1519 1518 1517 1515 1514 1512 1510 1508 1506 1503 1501 1498 1493 1489 1489
1547 1550 1550 1548 1548 1547 1545 1539 1538 1540 1535 1516 1528 1519 1468 1478 1485 1488 1493 1495 1498 1500 1503 1507 1510 1512 1515 1516 1516 1516 1515 1514 1512 1511 1508 1506 1504 1501 1499 1497 1495 1491 1486 1481
1542 1545 1550 1551 1544 1545 1542 1534 1517 1511 1508 1496 1530 1519 1480 1486 1491 1490 1493 1496 1498 1500 1503 1506 1508 1510 1512 1512 1512 1512 1512 1510 1508 1506 1504 1502 1500 1497 1495 1492 1490 1487 1483 1479
1539 1528 1547 1553 1552 1550 1547 1549 1533 1530 1510 1504 1530 1500 1477 1493 1495 1494 1496 1498 1500 1502 1503 1505 1506 1508 1508 1508 1508 1508 1507 1506 1505 1502 1500 1497 1495 1492 1489 1487 1485 1482 1479 1475
1539 1532 1553 1554 1554 1556 1547 1540 1554 1551 1568 1538 1497 1489 1489 1493 1494 1495 1497 1499 1500 1501 1502 1504 1504 1505 1505 1505 1505 1505 1504 1502 1500 1498 1495 1492 1490 1488 1486 1483 1479 1477 1474 1470
1547 1542 1548 1555 1556 1557 1553 1558 1543 1549 1528 1515 1488 1503 1479 1485 1490 1494 1495 1497 1499 1500 1500 1501 1501 1501 1501 1501 1500 1500 1499 1497 1494 1492 1490 1488 1486 1483 1480 1477 1474 1471 1469 1465
1553 1551 1544 1552 1547 1542 1553 1550 1555 1556 1542 1520 1504 1487 1489 1491 1491 1491 1492 1496 1498 1498 1498 1498 1498 1498 1497 1496 1495 1495 1494 1491 1489 1487 1485 1484 1481 1479 1475 1472 1469 1466 1463 1459
1553 1549 1541 1528 1555 1556 1552 1544 1541 1528 1527 1535 1527 1492 1494 1494 1494 1493 1493 1494 1494 1493 1494 1493 1494 1493 1493 1492 1490 1490 1488 1486 1484 1482 1480 1478 1475 1472 1469 1466 1463 1460 1456 1453
1551 1547 1538 1524 1551 1555 1546 1546 1542 1542 1537 1518 1509 1481 1488 1491 1490 1490 1489 1490 1489 1488 1488 1489 1489 1490 1490 1489 1488 1486 1484 1483 1480 1477 1474 1472 1469 1466 1463 1460 1456 1453 1449 1445
1548 1544 1536 1524 1515 1518 1535 1539 1539 1535 1519 1492 1491 1478 1483 1486 1488 1487 1487 1485 1484 1483 1484 1486 1487 1487 1486 1484 1483 1482 1480 1478 1475 1473 1470 1467 1463 1460 1456 1453 1449 1445 1441 1437
1546 1540 1528 1519 1514 1517 1518 1518 1519 1525 1503 1505 1475 1485 1475 1483 1485 1483 1482 1480 1479 1480 1482 1483 1483 1483 1483 1482 1481 1478 1476 1473 1470 1466 1463 1460 1456 1452 1448 1444 1440 1435 1432 1429
1544 1533 1531 1524 1517 1518 1517 1511 1504 1501 1498 1499 1493 1489 1482 1481 1482 1483 1483 1482 1481 1479 1480 1482 1482 1480 1479 1478 1476 1472 1469 1466 1463 1459 1455 1451 1447 1443 1438 1434 1430 1426 1422 1418
1542 1538 1531 1504 1514 1514 1505 1494 1489 1491 1496 1489 1489 1476 1480 1482 1481 1480 1481 1482 1481 1479 1479 1479 1479 1478 1475 1473 1470 1465 1462 1458 1455 1450 1445 1441 1437 1432 1427 1423 1419 1415 1411 1407
1532 1534 1530 1511 1514 1491 1479 1487 1487 1485 1483 1486 1480 1478 1484 1483 1482 1480 1476 1475 1481 1478 1476 1476 1474 1472 1469 1466 1463 1458 1454 1450 1445 1440 1435 1431 1426 1420 1416 1413 1409 1405 1401 1396
1522 1526 1519 1510 1493 1472 1474 1480 1486 1487 1474 1475 1477 1482 1479 1480 1478 1477 1476 1475 1475 1476 1475 1474 1471 1467 1463 1460 1456 1450 1446 1441 1436 1431 1425 1420 1416 1410 1407 1403 1398 1394 1390 1386
1522 1520 1516 1513 1500 1476 1472 1486 1488 1488 1473 1482 1482 1482 1481 1477 1472 1473 1475 1474 1475 1474 1472 1468 1464 1461 1456 1453 1448 1443 1437 1432 1427 1422 1416 1412 1407 1402 1397 1393 1388 1384 1381 1376
1518 1519 1515 1508 1497 1482 1489 1490 1490 1485 1483 1485 1483 1480 1478 1475 1473 1473 1472 1471 1471 1469 1466 1463 1460 1454 1450 1445 1440 1434 1429 1424 1419 1413 1407 1402 1398 1393 1389 1383 1378 1374 1370 1367
1511 1511 1509 1506 1501 1492 1488 1490 1492 1490 1487 1486 1481 1475 1474 1473 1473 1470 1467 1467 1466 1464 1462 1458 1453 1446 1440 1435 1431 1425 1420 1415 1410 1404 1399 1394 1390 1385 1379 1374 1369 1365 1363 1360
1505 1500 1494 1498 1481 1486 1489 1490 1490 1488 1485 1480 1477 1476 1476 1474 1470 1467 1465 1463 1462 1460 1456 1451 1445 1437 1431 1426 1421 1415 1411 1406 1400 1395 1389 1385 1381 1377 1371 1366 1361 1359 1356 1353
1498 1497 1497 1496 1484 1486 1488 1488 1488 1485 1481 1481 1479 1478 1475 1473 1470 1465 1462 1459 1455 1452 1447 1442 1435 1428 1421 1418 1413 1408 1402 1397 1391 1385 1381 1377 1372 1368 1364 1360 1356 1353 1350 1347
1494 1497 1489 1486 1485 1490 1489 1489 1487 1485 1482 1479 1477 1474 1472 1469 1465 1462 1458 1455 1450 1445 1441 1435 1428 1421 1414 1409 1404 1400 1394 1389 1383 1378 1373 1369 1365 1360 1357 1353 1350 1347 1344 1341
1492 1490 1488 1486 1490 1491 1491 1489 1487 1482 1478 1476 1473 1470 1468 1465 1461 1458 1454 1449 1445 1438 1432 1426 1420 1413 1407 1402 1396 1392 1388 1383 1377 1372 1368 1364 1359 1356 1352 1348 1344 1342 1338 1335